Fort Leonard Wood, MO

9:21 PM CDT on October 18, 2019 (GMT -0500)
Waynesville Regional At Forney Field

Weather History for KTBN - May, 2019

Change the Weather History Date:

Thursday, May 2, 2019

  Actual Average Record
Temperature  
Mean Temperature 60 °F -  
Max Temperature 65 °F 71 °F 86 °F (2012)
Min Temperature 55 °F 53 °F 35 °F (2005)
Degree Days  
Heating Degree Days 4    
Growing Degree Days 10 (Base 50)    
Moisture  
Dew Point 59 °F    
Average Humidity 92    
Maximum Humidity 100    
Minimum Humidity 83    
Precipitation  
Precipitation 0.12 in - - ()
Sea Level Pressure  
Sea Level Pressure 30.03 in    
Wind  
Wind Speed 6 mph (North)    
Max Wind Speed 14 mph    
Max Gust Speed 20 mph    
Visibility 10 miles    
Events Rain , Thunderstorm    
Averages and records for this station are not official NWS values.
T = Trace of Precipitation, MM = Missing Value Source: NWS Daily Summary

Daily Weather History Graph

Daily Weather History Graph

Search for Another Location

Airport or City:

Astronomy

May. 02, 2019 Rise Set
Actual Time 6:11 AM CDT 7:59 PM CDT
Civil Twilight 5:43 AM CDT 8:28 PM CDT
Nautical Twilight 5:09 AM CDT 9:02 PM CDT
Astronomical Twilight 4:33 AM CDT 9:39 PM CDT
Moon 5:20 AM CDT (5/2) 5:51 PM CDT (5/2)
Length of Visible Light 14h 44m
Length of Day
13h 47m
Waning Crescent, 5% of the Moon is Illuminated
May 2
Waning Crescent
May 4
New
May 11
First Quarter
May 18
Full
May 26
Last Quarter

Hourly Weather History & Observations

Time (CDT) Temp. Dew Point Humidity Pressure Visibility Wind Dir Wind Speed Gust Speed Precip Events Conditions
12:28 AM 64.4 °F 60.8 °F 88% 29.99 in 10.0 mi SE 5.8 mph - N/A Thunderstorm Thunderstorm
12:33 AM 64.4 °F 60.8 °F 88% 30.00 in 10.0 mi South 4.6 mph - N/A Thunderstorm Unknown
12:56 AM 64.0 °F 60.4 °F 88% 29.99 in 10.0 mi ESE 6.9 mph - 0.00 in Thunderstorm Thunderstorm
1:01 AM 64.4 °F 60.8 °F 88% 29.99 in 10.0 mi SE 9.2 mph - N/A Thunderstorm Mostly Cloudy
1:56 AM 63.7 °F 60.6 °F 90% 29.96 in 10.0 mi SSE 9.2 mph - N/A   Mostly Cloudy
2:56 AM 64.0 °F 60.4 °F 88% 29.96 in 10.0 mi SSE 6.9 mph - N/A   Clear
3:56 AM 63.1 °F 60.8 °F 92% 29.95 in 10.0 mi ESE 5.8 mph - N/A   Partly Cloudy
4:56 AM 64.6 °F 60.6 °F 87% 29.96 in 10.0 mi SSW 4.6 mph - N/A   Mostly Cloudy
5:56 AM 64.8 °F 60.1 °F 85% 30.00 in 10.0 mi South 8.1 mph - N/A   Partly Cloudy
6:25 AM 64.4 °F 59.0 °F 83% 30.01 in 10.0 mi West 4.6 mph - N/A   Light Drizzle
6:37 AM 64.4 °F 59.0 °F 83% 30.02 in 10.0 mi WNW 5.8 mph - N/A   Mostly Cloudy
6:56 AM 64.0 °F 59.0 °F 84% 30.00 in 10.0 mi WNW 5.8 mph - 0.00 in   Mostly Cloudy
7:28 AM 64.4 °F 60.8 °F 88% 30.01 in 10.0 mi Calm Calm - N/A   Light Drizzle
7:56 AM 63.5 °F 60.8 °F 91% 30.03 in 10.0 mi South 4.6 mph - 0.00 in   Light Drizzle
8:46 AM 64.4 °F 60.8 °F 88% 30.02 in 10.0 mi Calm Calm - N/A Rain Light Rain
8:56 AM 64.0 °F 61.7 °F 92% 30.02 in 10.0 mi West 4.6 mph - 0.01 in Rain Light Rain
9:09 AM 64.4 °F 62.6 °F 94% 30.02 in 10.0 mi West 3.5 mph - N/A   Partly Cloudy
9:56 AM 65.3 °F 62.6 °F 91% 30.05 in 10.0 mi South 4.6 mph - 0.00 in   Partly Cloudy
10:01 AM 66.2 °F 62.6 °F 88% 30.06 in 10.0 mi SSW 4.6 mph - N/A   Overcast
10:11 AM 66.2 °F 62.6 °F 88% 30.04 in 10.0 mi Calm Calm - N/A   Mostly Cloudy
10:21 AM 64.4 °F 62.6 °F 94% 30.06 in 10.0 mi Calm Calm - N/A   Mostly Cloudy
10:31 AM 62.6 °F 59.0 °F 88% 30.06 in 10.0 mi NW 8.1 mph 19.6 mph N/A   Overcast
10:36 AM 60.8 °F 59.0 °F 94% 30.07 in 10.0 mi NNW 12.7 mph - N/A   Overcast
10:51 AM 60.8 °F 59.0 °F 94% 30.07 in 10.0 mi North 8.1 mph - N/A   Overcast
10:56 AM 60.6 °F 58.3 °F 92% 30.07 in 10.0 mi North 8.1 mph - N/A   Overcast
11:06 AM 60.8 °F 57.2 °F 88% 30.08 in 10.0 mi NNW 5.8 mph - N/A   Overcast
11:10 AM 60.8 °F 57.2 °F 88% 30.08 in 10.0 mi NNW 4.6 mph - N/A   Light Drizzle
11:35 AM 60.8 °F 59.0 °F 94% 30.06 in 10.0 mi North 3.5 mph - N/A Rain Light Rain
11:56 AM 60.1 °F 58.6 °F 95% 30.05 in 10.0 mi North 6.9 mph - 0.03 in Rain Light Rain
12:06 PM 60.8 °F 59.0 °F 94% 30.05 in 10.0 mi NNE 4.6 mph - N/A Rain Light Rain
12:11 PM 60.8 °F 59.0 °F 94% 30.05 in 10.0 mi ENE 4.6 mph - N/A Rain Light Rain
12:39 PM 60.8 °F 59.0 °F 94% 30.04 in 10.0 mi ESE 4.6 mph - N/A   Overcast
12:49 PM 62.6 °F 60.8 °F 94% 30.04 in 10.0 mi ESE 8.1 mph - N/A   Mostly Cloudy
12:54 PM 62.6 °F 60.8 °F 94% 30.04 in 10.0 mi East 6.9 mph - N/A   Mostly Cloudy
12:56 PM 62.2 °F 61.0 °F 96% 30.04 in 10.0 mi East 5.8 mph - 0.02 in   Mostly Cloudy
1:16 PM 62.6 °F 60.8 °F 94% 30.04 in 10.0 mi East 4.6 mph - N/A   Overcast
1:56 PM 63.9 °F 61.5 °F 92% 30.04 in 10.0 mi Calm Calm - N/A   Overcast
2:06 PM 64.4 °F 62.6 °F 94% 30.04 in 10.0 mi Calm Calm - N/A   Overcast
2:36 PM 66.2 °F 62.6 °F 88% 30.02 in 10.0 mi Calm Calm - N/A   Overcast
2:51 PM 64.4 °F 60.8 °F 88% 30.02 in 10.0 mi NNW 12.7 mph - N/A   Overcast
2:56 PM 64.0 °F 60.6 °F 89% 30.02 in 10.0 mi NNW 10.4 mph - N/A   Overcast
3:08 PM 62.6 °F 60.8 °F 94% 30.03 in 10.0 mi NNW 11.5 mph - N/A   Light Drizzle
3:23 PM 62.6 °F 60.8 °F 94% 30.02 in 6.0 mi NNW 9.2 mph - N/A Rain Rain
3:43 PM 59.0 °F 57.2 °F 94% 30.02 in 10.0 mi NNW 13.8 mph - N/A Rain Light Rain
3:53 PM 59.0 °F 57.2 °F 94% 30.02 in 10.0 mi NNW 11.5 mph - N/A Rain Light Rain
3:56 PM 59.5 °F 58.1 °F 95% 30.02 in 10.0 mi NNW 11.5 mph - 0.06 in Rain Light Rain
4:56 PM 59.7 °F 58.6 °F 96% 30.01 in 10.0 mi North 9.2 mph - 0.00 in   Overcast
5:56 PM 58.5 °F 57.0 °F 95% 30.02 in 10.0 mi NNW 8.1 mph - N/A   Overcast
6:05 PM 59.0 °F 57.2 °F 94% 30.03 in 8.0 mi NNW 8.1 mph - N/A   Light Drizzle
6:10 PM 57.2 °F 57.2 °F 100% 30.02 in 7.0 mi NNW 8.1 mph - N/A   Light Drizzle
6:31 PM 57.2 °F 57.2 °F 100% 30.02 in 5.0 mi North 9.2 mph - N/A   Overcast
6:56 PM 57.0 °F 56.1 °F 97% 30.02 in 7.0 mi North 9.2 mph - 0.00 in   Overcast
7:21 PM 57.2 °F 55.4 °F 94% 30.02 in 9.0 mi North 5.8 mph - N/A   Overcast
7:51 PM 55.4 °F 55.4 °F 100% 30.03 in 5.0 mi North 4.6 mph - N/A   Overcast
7:56 PM 56.1 °F 55.6 °F 98% 30.03 in 5.0 mi North 4.6 mph - N/A   Overcast
8:56 PM 56.3 °F 55.8 °F 98% 30.05 in 9.0 mi North 5.8 mph - N/A   Overcast
9:56 PM 56.1 °F 55.6 °F 98% 30.04 in 7.0 mi North 4.6 mph - N/A   Overcast
10:56 PM 55.9 °F 55.6 °F 99% 30.04 in 10.0 mi North 5.8 mph - N/A   Overcast
11:56 PM 55.9 °F 55.4 °F 98% 30.06 in 10.0 mi NNE 5.8 mph - N/A   Overcast